Date String (YYYY-MM-DD hh:mm:ss) UTC,Instrument flags,Ambient pressure (hPa),Sample flow (lpm),Bypass flow (lpm),Sample temperature (°C),Ambient temperature (°C),ASC tube jacket temperature (°C),LED temperature (°C),Box temperature (°C),Sample RH (%),Span deviation,Mass concentration (μg/m³),Mass concentration (μg/m³),Mass concentration (μg/m³)
DateTimeUTC,F1_M11,P_M11,Q1_M11,Q2_M11,T1_M11,T2_M11,T3_M11,T4_M11,T5_M11,U1_M11,ZSPAN_M11,X0_M11,X2_M11,X1_M11
2022-11-07 21:00:00,,0822.9,5.00,0.00,27.3,26.3,00.0,36.0,29.3,12.8,0000.0,0016.43,0005.50,0004.18
2022-11-07 21:01:00,,0822.8,4.99,0.00,27.4,26.3,00.0,36.0,29.3,12.8,0000.0,0017.07,0005.49,0004.19
2022-11-07 21:02:00,,0822.8,5.00,0.00,27.4,26.3,00.0,36.0,29.3,12.8,0000.0,0016.88,0005.44,0004.19
2022-11-07 21:03:00,,0822.8,5.00,0.00,27.4,26.3,00.0,36.1,29.3,12.7,0000.0,0015.04,0005.49,0004.21
2022-11-07 21:04:00,,0822.8,5.00,0.00,27.4,26.3,00.0,36.1,29.4,12.6,0000.0,0015.84,0005.56,0004.22
2022-11-07 21:05:00,,0822.8,5.00,0.00,27.4,26.3,00.0,36.1,29.4,12.7,0000.0,0015.42,0005.59,0004.23
2022-11-07 21:06:00,,0822.8,5.00,0.00,27.5,26.4,00.0,36.1,29.4,12.7,0000.0,0014.96,0005.53,0004.25
2022-11-07 21:07:00,,0822.8,4.99,0.00,27.5,26.4,00.0,36.1,29.5,12.8,0000.0,0015.12,0005.56,0004.27
2022-11-07 21:08:00,,0822.8,5.00,0.00,27.5,26.4,00.0,36.1,29.5,12.8,0000.0,0015.46,0005.61,0004.29
2022-11-07 21:09:00,,0822.8,4.99,0.00,27.5,26.4,00.0,36.1,29.5,12.7,0000.0,0016.77,0005.66,0004.30
2022-11-07 21:10:00,,0822.8,5.00,0.00,27.5,26.4,00.0,36.2,29.5,12.7,0000.0,0017.24,0005.67,0004.33
2022-11-07 21:11:00,,0822.8,4.99,0.00,27.5,26.4,00.0,36.2,29.5,12.6,0000.0,0017.84,0005.74,0004.37
2022-11-07 21:12:00,,0822.8,5.01,0.00,27.5,26.4,00.0,36.2,29.5,12.7,0000.0,0018.15,0005.80,0004.39
2022-11-07 21:13:00,,0822.8,5.01,0.00,27.6,26.4,00.0,36.2,29.4,12.9,0000.0,0017.63,0005.87,0004.41
2022-11-07 21:14:00,,0822.8,5.00,0.00,27.6,26.4,00.0,36.2,29.5,12.7,0000.0,0018.05,0005.85,0004.42
2022-11-07 21:15:00,,0822.7,5.01,0.00,27.6,26.4,00.0,36.2,29.5,12.7,0000.0,0017.50,0005.81,0004.44
2022-11-07 21:16:00,,0822.7,5.00,0.00,27.6,26.5,00.0,36.2,29.5,12.7,0000.0,0017.08,0005.79,0004.45
2022-11-07 21:17:00,,0822.6,4.98,0.00,27.6,26.5,00.0,36.3,29.5,12.7,0000.0,0018.39,0005.83,0004.45
2022-11-07 21:18:00,,0822.7,5.00,0.00,27.6,26.5,00.0,36.3,29.6,12.7,0000.0,0019.60,0005.84,0004.45
2022-11-07 21:19:00,,0822.7,5.00,0.00,27.7,26.5,00.0,36.3,29.6,12.6,0000.0,0020.24,0005.81,0004.45
2022-11-07 21:20:00,,0822.7,5.01,0.00,27.7,26.6,00.0,36.3,29.6,12.7,0000.0,0019.81,0005.85,0004.47
2022-11-07 21:21:00,,0822.7,5.00,0.00,27.7,26.6,00.0,36.3,29.6,12.6,0000.0,0019.62,0005.91,0004.47
2022-11-07 21:22:00,,0822.7,5.00,0.00,27.7,26.6,00.0,36.3,29.7,12.7,0000.0,0020.44,0005.92,0004.48
2022-11-07 21:23:00,,0822.7,5.00,0.00,27.7,26.6,00.0,36.3,29.7,12.6,0000.0,0020.48,0005.95,0004.50
2022-11-07 21:24:00,,0822.7,4.99,0.00,27.7,26.7,00.0,36.4,29.7,12.6,0000.0,0020.20,0005.96,0004.51
2022-11-07 21:25:00,,0822.7,4.99,0.00,27.8,26.7,00.0,36.4,29.7,12.6,0000.0,0021.81,0006.00,0004.53
2022-11-07 21:26:00,,0822.7,5.00,0.00,27.8,26.7,00.0,36.4,29.7,12.6,0000.0,0022.90,0006.00,0004.55
2022-11-07 21:27:00,,0822.6,5.01,0.00,27.8,26.7,00.0,36.4,29.7,12.5,0000.0,0023.69,0005.99,0004.56
2022-11-07 21:28:00,,0822.7,5.01,0.00,27.8,26.7,00.0,36.4,29.8,12.5,0000.0,0023.41,0006.04,0004.59
2022-11-07 21:29:00,,0822.8,5.00,0.00,27.8,26.8,00.0,36.4,29.8,12.5,0000.0,0022.37,0006.14,0004.61
2022-11-07 21:30:00,,0822.7,5.00,0.00,27.8,26.8,00.0,36.5,29.8,12.5,0000.0,0022.07,0006.19,0004.64
2022-11-07 21:31:00,,0822.7,4.99,0.00,27.9,26.8,00.0,36.5,29.8,12.6,0000.0,0022.49,0006.20,0004.65
2022-11-07 21:32:00,,0822.7,4.99,0.00,27.9,26.8,00.0,36.5,29.8,12.5,0000.0,0022.90,0006.20,0004.67
2022-11-07 21:33:00,,0822.6,5.00,0.00,27.9,26.8,00.0,36.5,29.9,12.5,0000.0,0021.41,0006.16,0004.68
2022-11-07 21:34:00,,0822.6,5.01,0.00,27.9,26.9,00.0,36.5,29.9,12.5,0000.0,0021.56,0006.19,0004.71
2022-11-07 21:35:00,,0822.7,5.01,0.00,27.9,26.9,00.0,36.5,29.9,12.5,0000.0,0021.80,0006.17,0004.72
2022-11-07 21:36:00,,0822.8,5.00,0.00,28.0,26.9,00.0,36.6,29.9,12.5,0000.0,0020.77,0006.19,0004.73
2022-11-07 21:37:00,,0822.7,4.99,0.00,28.0,26.9,00.0,36.6,29.9,12.5,0000.0,0018.86,0006.21,0004.75
2022-11-07 21:38:00,,0822.7,5.00,0.00,28.0,26.9,00.0,36.6,29.9,12.5,0000.0,0017.50,0006.22,0004.77
2022-11-07 21:39:00,,0822.7,5.00,0.00,28.0,26.9,00.0,36.6,30.0,12.5,0000.0,0016.56,0006.15,0004.78
2022-11-07 21:40:00,,0822.8,5.00,0.00,28.0,26.9,00.0,36.6,30.0,12.4,0000.0,0016.78,0006.14,0004.81
2022-11-07 21:41:00,,0822.8,5.00,0.00,28.0,26.9,00.0,36.7,30.0,12.5,0000.0,0016.39,0006.11,0004.82
2022-11-07 21:42:00,,0822.8,5.00,0.00,28.0,26.9,00.0,36.7,30.0,12.4,0000.0,0015.73,0006.07,0004.84
2022-11-07 21:43:00,,0822.7,5.00,0.00,28.0,27.0,00.0,36.7,30.0,12.5,0000.0,0015.29,0006.04,0004.85
2022-11-07 21:44:00,,0822.7,5.00,0.00,28.1,27.0,00.0,36.7,30.0,12.5,0000.0,0016.25,0006.09,0004.87
2022-11-07 21:45:00,,0822.7,5.00,0.00,28.1,27.0,00.0,36.7,30.0,12.5,0000.0,0015.71,0006.09,0004.87
2022-11-07 21:46:00,,0822.7,5.01,0.00,28.1,27.0,00.0,36.7,30.0,12.4,0000.0,0015.29,0006.07,0004.87
2022-11-07 21:47:00,,0822.6,5.00,0.00,28.1,27.0,00.0,36.7,30.0,12.5,0000.0,0016.45,0006.09,0004.89
2022-11-07 21:48:00,,0822.6,4.99,0.00,28.1,27.0,00.0,36.8,30.1,12.5,0000.0,0016.67,0006.06,0004.90
2022-11-07 21:49:00,,0822.6,4.99,0.00,28.1,27.0,00.0,36.8,30.1,12.5,0000.0,0017.73,0006.10,0004.91
2022-11-07 21:50:00,,0822.7,5.00,0.00,28.1,27.0,00.0,36.8,30.1,12.4,0000.0,0018.77,0006.23,0004.93
2022-11-07 21:51:00,,0822.7,5.01,0.00,28.1,27.0,00.0,36.8,30.1,12.5,0000.0,0019.61,0006.24,0004.94
2022-11-07 21:52:00,,0822.7,5.01,0.00,28.2,27.1,00.0,36.8,30.1,12.4,0000.0,0019.54,0006.29,0004.97
2022-11-07 21:53:00,,0822.6,5.00,0.00,28.2,27.1,00.0,36.8,30.1,12.4,0000.0,0019.98,0006.33,0004.99
2022-11-07 21:54:00,,0822.6,5.00,0.00,28.2,27.0,00.0,36.8,30.1,12.4,0000.0,0019.64,0006.39,0005.02
2022-11-07 21:55:00,,0822.7,5.00,0.00,28.2,27.0,00.0,36.8,30.1,12.4,0000.0,0019.39,0006.36,0005.04
2022-11-07 21:56:00,,0822.7,5.00,0.00,28.2,27.1,00.0,36.9,30.1,12.3,0000.0,0019.24,0006.38,0005.06
2022-11-07 21:57:00,,0822.6,5.00,0.00,28.2,27.1,00.0,36.9,30.1,12.4,0000.0,0019.56,0006.42,0005.08
2022-11-07 21:58:00,,0822.6,5.00,0.00,28.2,27.1,00.0,36.9,30.1,12.5,0000.0,0018.84,0006.42,0005.09
2022-11-07 21:59:00,,0822.6,5.00,0.00,28.2,27.1,00.0,36.9,30.1,12.5,0000.0,0018.74,0006.45,0005.11
